{"data":{"norad_id":41786,"epoch":"2026-05-25T03:34:44.280768Z","epoch_age_seconds":72317,"freshness":"FRESH","line1":"1 41786U 16059D   26145.14912362  .00000607  00000+0  10732-3 0  9991","line2":"2 41786  97.9903 207.8630 0000789  72.5580 287.5713 14.70836748517387","mean_motion":14.70836748,"eccentricity":7.89e-5,"inclination_deg":97.9903,"raan_deg":207.863,"arg_perigee_deg":72.558,"mean_anomaly_deg":287.5713,"bstar":0.00010732,"rev_number":51738,"period_min":97.903455428216,"perigee_km":657.84294427734,"apogee_km":658.95330952037,"semimajor_km":7036.5351268989,"source":"CELESTRAK","updated_at":"2026-05-25T13:37:55.626242Z"}}